[[{"header":{"parameterUnit":"m.s-1","parameterCategory":1,"la1":30.2991,"la2":30.254,"lo1":-89.0895,"lo2":-89.0444,"dy":0.0017,"dx":0.0017,"nx":28,"ny":28,"refTime":"2023-09-21T21:00:00:Z","depth":0,"parameterNumber":2,"parameterNumberName":"U-component_of_WINDS"},"data":[0,0,0,0,0,0,0,0,0,0,0,0,0,0,0,0,0,0,0,0,0,0,0,0,0,0,0,0,0,0,0,0,0,0,0,0,0,0,0,0,0,0,0,0,0,0,0,0,0,0,0,0,0,0,0,0,0,0,-1.4597,-1.4597,0,-1.4581,-1.458,-1.458,-1.4495,-1.4493,-1.4491,-1.4489,-1.4474,-1.4475,-1.4477,0,0,0,0,0,0,0,0,0,0,0,0,0,-1.4555,-1.4556,-1.4597,-1.4597,-1.4596,-1.4581,-1.458,-1.458,-1.4495,-1.4493,-1.449,-1.4488,-1.4473,-1.4475,-1.4477,0,0,0,0,0,0,0,0,0,0,0,0,0,-1.4559,-1.4556,-1.4597,-1.4552,-1.4548,-1.4581,-1.458,-1.458,-1.4496,-1.4493,-1.449,-1.4487,-1.4473,-1.4475,-1.4477,-1.4552,0,0,-1.4484,-1.4485,0,0,0,0,0,0,0,0,-1.4559,-1.4561,-1.4559,-1.4555,-1.4551,-1.4537,-1.456,-1.4571,-1.4497,-1.4516,-1.4489,-1.4485,-1.4497,-1.4497,-1.4501,-1.4552,-1.4551,-1.4484,-1.4486,-1.4487,-1.4487,0,0,0,0,0,0,0,-1.4559,-1.4561,-1.459,-1.4559,-1.4554,-1.4533,-1.453,-1.4562,-1.4524,-1.4514,-1.4507,-1.4507,-1.4495,-1.4499,-1.45,-1.4551,-1.4484,-1.4486,-1.4488,-1.4489,-1.4661,-1.4664,0,0,0,0,0,0,-1.4565,-1.4561,-1.4591,-1.459,-1.4547,-1.4536,-1.4533,-1.4544,-1.4523,-1.4517,-1.4509,-1.4503,-1.4497,-1.4498,-1.4499,-1.4584,-1.4487,-1.4489,-1.449,-1.4657,-1.4661,-1.4665,0,0,0,0,0,0,-1.4564,-1.4568,-1.4591,-1.4574,-1.4575,-1.454,-1.4553,-1.4545,-1.455,-1.452,-1.4513,-1.4521,-1.4494,-1.4496,-1.4539,-1.4583,-1.449,-1.4492,-1.4654,-1.4659,-1.4663,-1.4757,0,0,0,0,0,0,-1.4563,-1.4568,-1.4597,-1.4575,-1.4577,-1.4632,-1.4556,-1.4547,-1.4554,-1.4545,-1.4529,-1.4523,-1.4492,-1.4536,-1.4542,-1.4584,-1.4494,-1.465,-1.4656,-1.4662,-1.4749,-1.4764,-1.4777,0,0,0,0,0,-1.4562,-1.4624,-1.4598,-1.4602,-1.4611,-1.4635,-1.4635,-1.4598,-1.4558,-1.4586,-1.4566,-1.4524,-1.4578,-1.4542,-1.4547,-1.4591,-1.4647,-1.4654,-1.4661,-1.4743,-1.4761,-1.4776,0,0,0,0,0,0,-1.4653,-1.4621,-1.4592,-1.4649,-1.4645,-1.462,-1.4654,-1.4618,-1.4626,-1.4618,-1.4571,-1.4568,-1.4618,-1.4609,-1.4569,-1.4662,-1.4605,-1.4613,-1.4666,-1.4682,-1.4696,-1.4696,-1.4495,0,0,0,0,0,-1.4679,-1.47,-1.4672,-1.4725,-1.4724,-1.469,-1.4699,-1.467,-1.4664,-1.4663,-1.4646,-1.4643,-1.4658,-1.467,-1.4683,-1.4748,-1.4743,-1.4781,-1.4794,-1.4806,-1.4813,-1.4846,-1.4862,-1.4689,-1.4689,-1.4688,0,0,-1.4734,-1.4719,-1.4736,-1.4742,-1.4736,-1.4759,-1.4689,-1.4717,-1.4734,-1.4667,-1.4706,-1.4694,-1.4687,-1.4741,-1.4764,-1.4735,-1.486,-1.4815,-1.4824,-1.4826,-1.4855,-1.4871,-1.4886,-1.4694,-1.4693,-1.4692,0,0,-1.4846,-1.4837,-1.488,-1.4875,-1.4865,-1.4842,-1.4852,-1.4833,-1.4822,-1.4861,-1.4811,-1.483,-1.4859,-1.4856,-1.4858,-1.4968,-1.4929,-1.4973,-1.5044,-1.5076,-1.509,-1.5101,-1.514,-1.5154,-1.4981,-1.4982,-1.4982,0,-1.4916,-1.4948,-1.4906,-1.4937,-1.4941,-1.4881,-1.4923,-1.4921,-1.4917,-1.4921,-1.4889,-1.4922,-1.4914,-1.4965,-1.4992,-1.4996,-1.5006,-1.4975,-1.5091,-1.5102,-1.5113,-1.5149,-1.5163,-1.4987,-1.4986,-1.4986,-1.4985,0,-1.5033,-1.5057,-1.5092,-1.5089,-1.5097,-1.5134,-1.5098,-1.5111,-1.5082,-1.5062,-1.5101,-1.5089,-1.5098,-1.5108,-1.508,-1.5156,-1.5138,-1.5099,-1.5041,-1.5135,-1.5168,-1.5182,-1.4995,-1.4993,-1.4991,-1.499,0,0,-1.5202,-1.5174,-1.5188,-1.5185,-1.517,-1.5187,-1.5221,-1.5229,-1.5241,-1.5241,-1.5267,-1.5293,-1.5256,-1.5258,-1.523,-1.5258,-1.5345,-1.5215,-1.5214,-1.5239,-1.5426,-1.5455,-1.5471,-1.5319,-1.5322,-1.5324,-1.5426,0,-1.5308,-1.5363,-1.5326,-1.5387,-1.5408,-1.5351,-1.538,-1.5374,-1.5357,-1.5372,-1.5352,-1.537,-1.5322,-1.5322,-1.5348,-1.5329,-1.5381,-1.5321,-1.5343,-1.5345,-1.5346,-1.5489,-1.5519,-1.5617,-1.5439,-1.5441,-1.5443,0,-1.5438,-1.5442,-1.5505,-1.5485,-1.5492,-1.5519,-1.5523,-1.5538,-1.5531,-1.5516,-1.5518,-1.5482,-1.5514,-1.5457,-1.55,-1.546,-1.5467,-1.5459,-1.5462,-1.5461,-1.5399,-1.5491,-1.5647,-1.5661,-1.5463,-1.5461,-1.546,0,-1.5553,-1.5574,-1.5614,-1.5614,-1.5592,-1.5612,-1.5604,-1.5593,-1.56,-1.5603,-1.5607,-1.5615,-1.5619,-1.5626,-1.5593,-1.5555,-1.564,-1.5581,-1.5628,-1.5629,-1.5648,-1.5647,-1.5806,-1.5654,-1.5654,-1.5654,-1.5654,0,-1.5674,-1.5715,-1.5665,-1.569,-1.5733,-1.5691,-1.5735,-1.5721,-1.5712,-1.5733,-1.5685,-1.5706,-1.5661,-1.5677,-1.5652,-1.5691,-1.5693,-1.5682,-1.5674,-1.5686,-1.5687,-1.5689,-1.5681,-1.5658,-1.5657,-1.5656,-1.5655,0,-1.581,-1.5778,-1.5817,-1.5793,-1.5788,-1.5821,-1.58,-1.5822,-1.5801,-1.5828,-1.5832,-1.5799,-1.5816,-1.5783,-1.5796,-1.5779,-1.5833,-1.5816,-1.5835,-1.583,-1.5878,-1.5874,-1.6043,-1.6063,-1.5901,-1.5902,-1.5903,0,-1.5888,-1.5918,-1.5896,-1.5906,-1.5901,-1.5918,-1.5924,-1.5883,-1.5892,-1.5885,-1.5908,-1.592,-1.5928,-1.5957,-1.5935,-1.5944,-1.5926,-1.5984,-1.5927,-1.5937,-1.5925,-1.5923,-1.5926,-1.5996,-1.5998,-1.6,-1.6001,0,-1.6032,-1.6014,-1.6024,-1.6029,-1.6038,-1.604,-1.6039,-1.605,-1.6007,-1.6019,-1.6035,-1.6041,-1.6053,-1.6066,-1.607,-1.6062,-1.6025,-1.6019,-1.603,-1.6042,-1.6051,-1.6046,-1.5867,-1.6015,-1.6014,-1.6013,-1.6012,-1.6012,-1.614,-1.6163,-1.6151,-1.6164,-1.6159,-1.6158,-1.6177,-1.6158,-1.617,-1.6176,-1.6152,-1.6173,-1.6164,-1.6165,-1.6161,-1.6178,-1.6151,-1.6168,-1.6172,-1.6177,-1.6184,-1.605,-1.6179,-1.6178,-1.6178,-1.6177,-1.6177,0,-1.6279,-1.6269,-1.6281,-1.628,-1.629,-1.6253,-1.625,-1.6261,-1.628,-1.6275,-1.6283,-1.6301,-1.6313,-1.6291,-1.63,-1.6317,-1.63,-1.6321,-1.6319,-1.6317,-1.6207,-1.6196,-1.6334,-1.6334,-1.6334,-1.6334,-1.6334,-1.6334,-1.6353,-1.639,-1.6371,-1.6404,-1.6393,-1.6413,-1.6414,-1.6414,-1.6409,-1.643,-1.644,-1.6425,-1.6413,-1.6421,-1.643,-1.6424,-1.6429,-1.6455,-1.6443,-1.634,-1.6325,-1.631,-1.6299,-1.6457,-1.6457,-1.6551,-1.6552,-1.6552]},{"header":{"parameterUnit":"m.s-1","parameterCategory":1,"la1":30.2991,"la2":30.254,"lo1":-89.0895,"lo2":-89.0444,"dy":0.0017,"dx":0.0017,"nx":28,"ny":28,"refTime":"2023-09-21T21:00:00:Z","depth":0,"parameterNumber":3,"parameterNumberName":"V-component_of_WINDS"},"data":[0,0,0,0,0,0,0,0,0,0,0,0,0,0,0,0,0,0,0,0,0,0,0,0,0,0,0,0,0,0,0,0,0,0,0,0,0,0,0,0,0,0,0,0,0,0,0,0,0,0,0,0,0,0,0,0,0,0,-0.7102,-0.7104,0,-0.7292,-0.7294,-0.7297,-0.7401,-0.7401,-0.7402,-0.7402,-0.7597,-0.7602,-0.7607,0,0,0,0,0,0,0,0,0,0,0,0,0,-0.683,-0.6834,-0.7102,-0.7105,-0.7107,-0.7292,-0.7295,-0.7297,-0.7401,-0.7401,-0.7402,-0.7402,-0.7596,-0.7602,-0.7607,0,0,0,0,0,0,0,0,0,0,0,0,0,-0.6977,-0.6836,-0.7102,-0.7181,-0.719,-0.7291,-0.7295,-0.7298,-0.7401,-0.7401,-0.7402,-0.7402,-0.7594,-0.7601,-0.7608,-0.7646,0,0,-0.7631,-0.7634,0,0,0,0,0,0,0,0,-0.6968,-0.6987,-0.7167,-0.7176,-0.7186,-0.7323,-0.727,-0.7415,-0.7401,-0.7321,-0.7402,-0.7402,-0.7506,-0.7521,-0.7555,-0.7655,-0.7663,-0.7632,-0.7636,-0.7639,-0.7641,0,0,0,0,0,0,0,-0.6958,-0.6979,-0.7178,-0.7169,-0.7181,-0.7207,-0.7229,-0.7298,-0.7409,-0.7328,-0.7336,-0.7357,-0.7511,-0.7548,-0.7561,-0.7666,-0.7631,-0.7638,-0.7643,-0.7645,-0.7806,-0.7805,0,0,0,0,0,0,-0.6935,-0.697,-0.7172,-0.7183,-0.7076,-0.7212,-0.7236,-0.7279,-0.7408,-0.7428,-0.7356,-0.7361,-0.7535,-0.7552,-0.7568,-0.762,-0.7639,-0.7646,-0.765,-0.7806,-0.7806,-0.7805,0,0,0,0,0,0,-0.6929,-0.6952,-0.7164,-0.7079,-0.7108,-0.7216,-0.7264,-0.7282,-0.7319,-0.743,-0.745,-0.7373,-0.7536,-0.7558,-0.7626,-0.7628,-0.765,-0.7656,-0.7806,-0.7806,-0.7806,-0.7725,0,0,0,0,0,0,-0.692,-0.6949,-0.6964,-0.7078,-0.7112,-0.7218,-0.7264,-0.7286,-0.7332,-0.734,-0.7451,-0.747,-0.7538,-0.7614,-0.7633,-0.7639,-0.7662,-0.7806,-0.7806,-0.7806,-0.7728,-0.7722,-0.7717,0,0,0,0,0,-0.691,-0.6935,-0.6965,-0.6988,-0.7133,-0.7218,-0.7237,-0.7314,-0.7331,-0.7348,-0.7419,-0.7467,-0.7625,-0.762,-0.7642,-0.7651,-0.7807,-0.7806,-0.7806,-0.773,-0.7723,-0.7717,0,0,0,0,0,0,-0.6819,-0.6951,-0.6986,-0.7048,-0.712,-0.7235,-0.7258,-0.7304,-0.7374,-0.7379,-0.7472,-0.7496,-0.7555,-0.761,-0.7602,-0.7693,-0.7721,-0.7725,-0.7656,-0.765,-0.7644,-0.763,-0.7668,0,0,0,0,0,-0.6806,-0.6863,-0.6975,-0.7019,-0.7054,-0.7149,-0.7189,-0.7242,-0.7322,-0.7353,-0.7429,-0.7505,-0.7572,-0.7614,-0.7681,-0.7736,-0.7762,-0.7753,-0.7747,-0.7742,-0.7744,-0.7777,-0.7774,-0.7804,-0.7804,-0.7804,0,0,-0.6779,-0.6859,-0.6889,-0.7003,-0.7065,-0.7123,-0.7175,-0.7233,-0.7277,-0.7362,-0.7431,-0.7489,-0.758,-0.7641,-0.7671,-0.7688,-0.7742,-0.7741,-0.7736,-0.7742,-0.7776,-0.7773,-0.7771,-0.7804,-0.7804,-0.7804,0,0,-0.6761,-0.6826,-0.687,-0.6931,-0.7025,-0.7089,-0.7099,-0.7206,-0.7248,-0.7318,-0.7383,-0.7436,-0.755,-0.7611,-0.7657,-0.766,-0.7707,-0.768,-0.7651,-0.7682,-0.768,-0.7678,-0.7679,-0.7678,-0.7682,-0.7682,-0.7682,0,-0.6716,-0.6805,-0.6886,-0.6941,-0.6989,-0.7068,-0.7112,-0.7168,-0.7279,-0.7311,-0.7328,-0.7471,-0.7537,-0.7614,-0.7614,-0.7649,-0.7663,-0.7668,-0.7673,-0.7672,-0.7672,-0.7674,-0.7674,-0.7678,-0.7678,-0.7679,-0.7679,0,-0.6746,-0.6806,-0.683,-0.6935,-0.6985,-0.7034,-0.7123,-0.7164,-0.7212,-0.7273,-0.7343,-0.7426,-0.7511,-0.7533,-0.7581,-0.7616,-0.7624,-0.7655,-0.7685,-0.7664,-0.7667,-0.7669,-0.7672,-0.7674,-0.7675,-0.7676,0,0,-0.6676,-0.6824,-0.6831,-0.6879,-0.6989,-0.7037,-0.7089,-0.7172,-0.7206,-0.728,-0.7326,-0.7419,-0.7449,-0.7501,-0.7557,-0.7583,-0.758,-0.7613,-0.7616,-0.7604,-0.7624,-0.7599,-0.7598,-0.7611,-0.7612,-0.7612,-0.7616,0,-0.6673,-0.6771,-0.6845,-0.6914,-0.6971,-0.7046,-0.7092,-0.7164,-0.7222,-0.7279,-0.7344,-0.7408,-0.7443,-0.7475,-0.7504,-0.7574,-0.7585,-0.7575,-0.7656,-0.7658,-0.7631,-0.76,-0.7575,-0.7574,-0.7618,-0.7618,-0.7618,0,-0.6683,-0.6754,-0.6828,-0.6931,-0.6957,-0.6997,-0.7078,-0.7132,-0.7214,-0.7255,-0.7312,-0.7369,-0.7428,-0.7451,-0.7533,-0.7524,-0.7561,-0.76,-0.7602,-0.7613,-0.7637,-0.761,-0.7576,-0.7576,-0.7621,-0.7621,-0.7621,0,-0.6624,-0.6738,-0.6797,-0.6836,-0.6957,-0.6983,-0.7035,-0.7118,-0.7162,-0.7234,-0.7264,-0.7341,-0.7383,-0.7441,-0.7518,-0.7527,-0.7591,-0.7621,-0.7627,-0.7625,-0.7638,-0.7636,-0.7609,-0.7661,-0.7661,-0.7661,-0.7661,0,-0.6614,-0.6657,-0.6772,-0.6809,-0.6859,-0.6943,-0.6991,-0.7049,-0.7121,-0.7171,-0.7241,-0.7285,-0.7383,-0.7439,-0.7499,-0.7558,-0.7577,-0.7611,-0.7627,-0.7605,-0.7601,-0.7631,-0.7633,-0.7661,-0.7661,-0.7661,-0.7661,0,-0.6557,-0.6636,-0.6706,-0.6814,-0.6842,-0.6874,-0.6967,-0.7005,-0.7067,-0.7128,-0.7147,-0.7244,-0.7314,-0.7396,-0.7493,-0.7533,-0.7587,-0.7609,-0.7558,-0.7567,-0.7568,-0.7567,-0.756,-0.7564,-0.7612,-0.7612,-0.7611,0,-0.6545,-0.658,-0.6691,-0.6729,-0.6778,-0.6838,-0.6884,-0.6967,-0.7012,-0.7108,-0.7135,-0.721,-0.7274,-0.7383,-0.7462,-0.7536,-0.7561,-0.7554,-0.7573,-0.755,-0.7561,-0.7558,-0.7562,-0.7548,-0.7547,-0.7547,-0.7546,0,-0.6515,-0.6553,-0.6616,-0.6692,-0.6744,-0.6809,-0.6876,-0.6903,-0.7,-0.7047,-0.7119,-0.7169,-0.7267,-0.7341,-0.7425,-0.7479,-0.7528,-0.7539,-0.7545,-0.7523,-0.7492,-0.7509,-0.7544,-0.7539,-0.754,-0.754,-0.7541,-0.7541,-0.6481,-0.6515,-0.6598,-0.6666,-0.6725,-0.6786,-0.6827,-0.6893,-0.6955,-0.7041,-0.7087,-0.7157,-0.7239,-0.7357,-0.7408,-0.7465,-0.7482,-0.749,-0.7492,-0.7492,-0.7486,-0.7482,-0.7481,-0.7481,-0.7481,-0.7482,-0.7482,0,-0.6455,-0.6512,-0.6573,-0.6665,-0.6718,-0.6759,-0.6836,-0.6877,-0.6938,-0.701,-0.7071,-0.7154,-0.7225,-0.7309,-0.7386,-0.7415,-0.744,-0.7433,-0.7432,-0.7443,-0.7466,-0.7454,-0.7411,-0.7411,-0.7411,-0.7411,-0.7411,-0.7411,-0.6448,-0.6507,-0.6554,-0.6643,-0.67,-0.677,-0.681,-0.6866,-0.6923,-0.7012,-0.7071,-0.7125,-0.7202,-0.7285,-0.7352,-0.7375,-0.74,-0.7386,-0.7415,-0.7435,-0.7441,-0.7447,-0.7436,-0.739,-0.739,-0.7387,-0.7387,-0.7387]}]]